Moose, WY

2:13 PM MDT on September 29, 2016 (GMT -0600)
Jackson Hole

Weather History for KJAC - July, 2014

Change the Weather History Date:

Thursday, July 3, 2014

  Actual Average Record
Temperature  
Mean Temperature 62 °F -  
Max Temperature 82 °F 78 °F 100 °F (2008)
Min Temperature 42 °F 39 °F 27 °F (1973)
Degree Days  
Heating Degree Days 3    
Growing Degree Days 12 (Base 50)    
Moisture  
Dew Point 43 °F    
Average Humidity 63    
Maximum Humidity 87    
Minimum Humidity 26    
Precipitation  
Precipitation 0.00 in - - ()
Sea Level Pressure  
Sea Level Pressure 30.22 in    
Wind  
Wind Speed 4 mph (WNW)    
Max Wind Speed 20 mph    
Max Gust Speed 29 mph    
Visibility 10 miles    
Events Thunderstorm    
Averages and records for this station are not official NWS values.
T = Trace of Precipitation, MM = Missing Value Source: NWS Daily Summary

Daily Weather History Graph

Daily Weather History Graph

Search for Another Location

Airport or City:

Trip Planner

Search our weather history database for the weather conditions in past years. The results will help you decide how hot, cold, wet, or windy it might be!

Date:

Astronomy

Jul. 03, 2014 Rise Set
Actual Time 5:46 AM MDT 9:07 PM MDT
Civil Twilight 5:10 AM MDT 9:43 PM MDT
Nautical Twilight 4:24 AM MDT 10:29 PM MDT
Astronomical Twilight 3:26 AM MDT 11:26 PM MDT
Moon 12:01 PM MDT (7/3) No Moon Set
Length of Visible Light 16h 32m
Length of Day
15h 21m
Waxing Crescent, 33% of the Moon is Illuminated
Jul 3
Waxing Crescent
Jul 5
First Quarter
Jul 12
Full
Jul 18
Last Quarter
Jul 26
New

Hourly Weather History & Observations

Time (MDT) Temp. Windchill Dew Point Humidity Pressure Visibility Wind Dir Wind Speed Gust Speed Precip Events Conditions
12:15 AM 51.8 °F - 42.8 °F 71% 30.20 in 10.0 mi North 3.5 mph - N/A   Clear
12:35 AM 53.6 °F - 42.8 °F 67% 30.20 in 10.0 mi North 4.6 mph - N/A   Clear
12:55 AM 50.0 °F - 42.8 °F 76% 30.21 in 10.0 mi NE 5.8 mph - N/A   Clear
1:15 AM 53.6 °F - 44.6 °F 72% 30.21 in 10.0 mi NNE 5.8 mph - N/A   Clear
1:35 AM 50.0 °F - 42.8 °F 76% 30.21 in 10.0 mi Calm Calm - N/A   Clear
1:55 AM 51.8 °F - 42.8 °F 71% 30.21 in 10.0 mi Calm Calm - N/A   Clear
2:15 AM 46.4 °F 45.2 °F 42.8 °F 87% 30.20 in 10.0 mi NW 3.5 mph - N/A   Clear
2:35 AM 48.2 °F - 41.0 °F 76% 30.21 in 10.0 mi Calm Calm - N/A   Clear
2:55 AM 50.0 °F - 41.0 °F 71% 30.21 in 10.0 mi Calm Calm - N/A   Clear
3:15 AM 48.2 °F - 41.0 °F 76% 30.21 in 10.0 mi Calm Calm - N/A   Clear
3:35 AM 48.2 °F - 41.0 °F 76% 30.21 in 10.0 mi NNW 3.5 mph - N/A   Clear
3:55 AM 44.6 °F 42.2 °F 39.2 °F 81% 30.21 in 10.0 mi North 4.6 mph - N/A   Clear
4:15 AM 46.4 °F 44.3 °F 41.0 °F 81% 30.22 in 10.0 mi North 4.6 mph - N/A   Clear
4:35 AM 42.8 °F 39.3 °F 39.2 °F 87% 30.22 in 10.0 mi North 5.8 mph - N/A   Clear
4:55 AM 46.4 °F 44.3 °F 41.0 °F 81% 30.22 in 10.0 mi North 4.6 mph - N/A   Clear
5:15 AM 46.4 °F 44.3 °F 41.0 °F 81% 30.23 in 10.0 mi North 4.6 mph - N/A   Clear
5:35 AM 44.6 °F - 39.2 °F 81% 30.23 in 10.0 mi Calm Calm - N/A   Clear
5:55 AM 46.4 °F 42.4 °F 41.0 °F 81% 30.23 in 10.0 mi North 8.1 mph - N/A   Clear
6:15 AM 42.8 °F - 39.2 °F 87% 30.24 in 10.0 mi Calm Calm - N/A   Clear
6:35 AM 44.6 °F - 41.0 °F 87% 30.24 in 10.0 mi Calm Calm - N/A   Clear
6:51 AM 64.4 °F - 37.4 °F 37% 30.25 in 10.0 mi Calm Calm - N/A   Clear
6:58 AM 46.4 °F - 42.8 °F 87% 30.25 in 10.0 mi Calm Calm - N/A   Clear
7:55 AM 53.6 °F - 42.8 °F 67% 30.25 in 10.0 mi Calm Calm - N/A   Clear
8:51 AM 57.2 °F - 42.8 °F 59% 30.24 in 10.0 mi Calm Calm - N/A   Clear
9:52 AM 62.6 °F - 44.6 °F 52% 30.24 in 10.0 mi Calm Calm - N/A   Clear
10:51 AM 68.0 °F - 44.6 °F 43% 30.22 in 10.0 mi Calm Calm - N/A   Clear
11:55 AM 75.2 °F - 46.4 °F 36% 30.21 in 10.0 mi Calm Calm - N/A   Clear
12:52 PM 78.8 °F - 48.2 °F 34% 30.20 in 10.0 mi SSW 4.6 mph - N/A   Clear
1:51 PM 82.4 °F - 44.6 °F 26% 30.17 in 10.0 mi Calm Calm - N/A   Clear
2:58 PM 75.2 °F - 48.2 °F 38% 30.15 in 10.0 mi SW 9.2 mph - N/A   Mostly Cloudy
3:53 PM 73.4 °F - 41.0 °F 31% 30.16 in 10.0 mi WNW 19.6 mph 28.8 mph N/A Thunderstorm Thunderstorm
6:52 PM 71.6 °F - 46.4 °F 41% 30.21 in 10.0 mi North 5.8 mph - N/A   Overcast
7:58 PM 68.0 °F - 48.2 °F 49% 30.22 in 10.0 mi North 5.8 mph - N/A   Overcast
8:55 PM 64.4 °F - 46.4 °F 52% 30.25 in 10.0 mi SSW 11.5 mph - N/A   Clear
9:15 PM 62.6 °F - 44.6 °F 52% 30.24 in 10.0 mi SW 11.5 mph 16.1 mph N/A   Clear
9:35 PM 62.6 °F - 44.6 °F 52% 30.24 in 10.0 mi SSW 6.9 mph - N/A   Clear
9:55 PM 62.6 °F - 44.6 °F 52% 30.25 in 10.0 mi SW 4.6 mph - N/A   Clear
10:15 PM 60.8 °F - 44.6 °F 55% 30.26 in 10.0 mi South 5.8 mph - N/A   Clear
10:35 PM 60.8 °F - 44.6 °F 55% 30.26 in 10.0 mi SSW 8.1 mph - N/A   Clear
10:55 PM 59.0 °F - 44.6 °F 59% 30.27 in 10.0 mi SSW 8.1 mph - N/A   Partly Cloudy
11:15 PM 60.8 °F - 44.6 °F 55% 30.27 in 10.0 mi SSW 5.8 mph - N/A   Mostly Cloudy
11:35 PM 60.8 °F - 44.6 °F 55% 30.27 in 10.0 mi SSE 10.4 mph - N/A   Partly Cloudy
11:55 PM 57.2 °F - 44.6 °F 63% 30.26 in 10.0 mi SSE 9.2 mph - N/A   Clear